Wetbulb
44.85 45.06 45.08 44.80 44.82 45.18 45.58 45.56 45.62 45.70 45.67 45.91 45.81 45.83 45.77 45.79 45.16 41.54 36.14 38.93 35.43 30.56 29.28 30.68 31.36 27.20 28.11 25.67 21.53 25.82 24.38 23.83 21.65 15.08 13.37 16.07 18.07 20.27 20.18 22.87 21.45 15.07 13.83 17.33 20.70 18.39 16.18 34.37 33.90 29.07 33.34 37.62 37.14 37.13
44.47 44.37 44.13 44.14 44.45 44.76 44.88 45.16 45.21 45.21 45.35 45.27 45.35 45.58 45.46 45.84 45.30 44.31 37.02 40.12 40.98 33.76 31.16 33.23 33.98 34.54 33.41 32.55 28.53 27.36 25.04 25.93 26.12 18.52 21.72 23.10 19.80 18.82 19.83 14.96 24.99 19.44 23.24 22.66 24.83 23.46 31.41 35.86 36.05 38.23 39.23 37.48 37.58 38.43
43.50 43.75 44.21 44.02 44.31 44.57 44.72 44.69 44.71 44.86 44.91 45.00 45.18 45.01 45.16 45.08 44.92 43.37 38.81 39.60 38.66 32.24 31.86 30.90 30.38 35.36 37.66 36.25 36.51 25.86 27.12 30.27 28.70 29.39 22.20 21.26 18.90 21.56 16.41 18.59 21.87 26.79 32.20 27.83 27.82 31.00 32.19 34.63 36.21 37.35 38.53 38.36 39.30 40.24
43.35 43.47 43.75 43.84 43.96 44.25 44.40 44.34 44.39 44.40 44.23 44.72 44.88 44.99 44.83 44.40 44.37 43.25 37.59 38.71 37.55 33.87 24.58 24.82 34.76 32.07 36.43 36.49 35.75 35.50 33.62 35.20 34.67 33.59 28.87 26.53 21.88 27.94 24.24 25.86 25.54 29.02 30.22 28.96 26.88 29.92 31.60 32.87 34.90 35.84 37.20 39.82 39.64 39.98
43.51 43.52 43.52 43.78 43.88 44.38 44.55 44.30 43.90 43.52 43.36 43.88 44.19 44.24 43.87 43.45 43.00 39.76 37.19 37.17 38.77 32.10 18.43 22.79 31.18 34.09 35.79 35.56 34.86 34.65 33.61 32.72 32.12 29.40 28.08 24.48 27.54 28.56 28.95 29.31 26.08 29.56 28.57 25.56 23.73 30.16 28.97 29.83 33.68 36.10 35.91 37.13 38.66 38.58
43.22 43.41 43.41 43.69 43.98 44.15 43.99 43.95 43.86 43.40 43.57 44.08 43.86 43.50 43.10 42.91 41.70 35.30 26.87 34.79 38.53 35.69 29.64 22.15 30.80 32.03 33.71 34.62 34.54 33.47 34.02 33.48 32.48 31.09 29.69 32.25 34.58 30.93 26.71 23.38 29.36 31.38 33.30 34.23 30.57 33.35 32.93 34.52 35.24 36.34 36.63 37.88 38.93 38.83
42.98 43.27 43.53 43.62 43.79 44.12 43.91 43.66 43.52 42.87 43.78 43.62 43.31 43.46 43.14 43.01 34.69 28.59 24.88 32.09 40.95 40.01 31.13 25.64 23.34 29.59 34.76 34.87 31.78 32.05 34.22 34.45 33.65 32.07 30.31 30.44 30.21 31.58 25.05 23.13 30.27 31.74 32.68 33.54 34.30 31.59 30.74 32.73 32.47 36.65 37.68 38.72 40.25 38.19
42.98 43.31 43.24 43.11 43.39 43.62 43.34 43.31 42.97 42.99 43.26 43.23 43.31 42.99 42.50 42.32 38.49 32.42 33.79 41.54 38.05 30.82 31.25 22.70 21.79 22.07 31.29 26.26 25.46 31.24 26.97 32.79 32.75 30.86 27.97 28.70 29.51 30.25 25.73 29.09 31.38 32.80 33.17 32.92 33.54 34.57 34.04 34.63 34.32 33.95 36.48 37.79 34.54 31.91
42.72 42.73 43.11 43.23 43.47 43.42 42.96 43.29 43.25 43.24 43.07 42.90 42.71 42.10 36.19 32.00 28.26 30.69 40.05 40.72 35.95 30.31 21.13 23.25 19.37 12.11 26.32 23.17 23.74 25.31 25.24 24.06 26.99 26.23 26.38 27.37 23.76 23.80 27.95 29.72 30.79 31.90 31.08 31.93 33.54 32.28 32.28 31.30 33.16 34.06 36.61 35.87 32.05 30.27
42.37 42.59 42.76 43.18 43.07 42.50 43.18 43.43 43.20 43.11 42.87 41.75 33.64 24.74 15.84 28.44 37.97 39.24 32.27 27.29 32.19 32.33 30.80 24.52 22.03 19.19 22.11 17.55 18.15 24.34 23.53 24.84 23.44 25.00 27.49 23.72 25.34 30.81 31.97 32.93 33.25 33.48 34.72 35.22 31.17 29.81 31.58 32.34 33.82 34.90 37.78 38.03 33.87 31.26
42.68 42.83 42.78 43.15 42.75 42.94 43.05 43.00 43.04 42.62 38.53 29.65 21.15 22.69 30.10 39.06 33.94 27.41 22.29 25.40 23.61 23.19 27.39 27.67 25.38 23.52 29.08 21.41 21.78 23.91 19.16 25.21 22.40 24.80 24.62 23.69 24.68 29.14 35.13 35.94 37.32 37.97 38.51 38.63 36.82 35.77 34.05 35.01 34.05 33.13 33.98 35.20 32.44 31.35
42.82 42.64 42.93 42.79 42.55 42.92 42.87 42.88 42.57 34.29 31.08 31.76 31.39 34.57 34.04 31.52 29.74 24.33 22.18 26.65 25.04 23.47 28.58 26.92 27.97 28.70 29.67 31.10 26.81 25.72 23.64 24.59 20.88 29.04 25.12 22.62 28.11 34.39 34.34 34.67 36.12 39.03 38.94 38.69 39.40 38.39 34.18 35.52 34.98 34.91 33.46 31.70 30.86 30.69
42.51 42.50 42.75 42.63 42.41 42.92 42.82 42.82 40.43 39.31 37.79 34.16 30.28 24.38 29.28 23.42 18.32 20.42 17.61 22.74 23.67 29.26 30.10 30.32 28.32 31.29 31.44 31.41 28.82 27.13 23.61 22.86 29.59 26.43 24.46 27.69 32.88 32.83 32.49 32.86 34.99 38.67 37.88 34.03 34.48 37.80 35.66 35.00 35.80 35.65 33.61 31.08 29.98 27.66
42.31 42.25 42.53 42.38 42.56 42.55 42.74 42.24 41.73 38.48 32.94 25.71 19.17 14.23 20.26 12.25 22.31 24.32 25.50 26.43 30.28 30.88 30.32 30.66 29.65 29.96 31.15 28.11 27.90 23.98 25.34 27.58 22.67 19.81 24.12 28.42 30.66 30.99 30.92 31.85 34.58 35.40 34.58 32.21 33.96 35.76 33.44 33.43 31.85 31.94 31.84 28.88 26.10 21.98
42.23 42.23 42.43 42.29 42.40 42.67 42.67 41.82 40.95 35.29 29.56 21.37 25.75 15.93 16.00 23.09 24.65 24.67 26.26 28.83 31.36 32.54 31.83 31.24 30.68 31.27 29.57 27.00 28.13 26.69 23.98 22.20 24.24 24.43 25.76 30.12 30.56 29.54 29.13 31.18 33.13 32.12 31.17 31.38 29.83 30.57 31.63 30.29 29.83 24.37 24.30 25.32 22.79 19.40
42.16 41.78 40.92 41.13 41.31 42.58 42.20 40.22 35.24 32.60 26.42 27.72 26.68 24.01 24.00 22.86 22.13 16.64 21.60 26.82 31.90 32.61 33.70 32.30 28.61 27.73 26.73 27.79 26.16 24.42 24.64 22.05 25.31 28.52 29.63 30.01 29.70 28.65 28.29 31.43 31.53 30.19 28.16 28.78 28.52 28.15 26.46 25.66 24.05 19.17 17.72 17.68 19.26 20.31
41.70 38.72 42.29 42.39 42.28 41.92 39.97 33.31 33.18 27.96 24.42 24.38 18.87 25.06 25.60 24.32 24.86 24.77 24.60 27.35 33.62 32.19 27.69 28.29 22.90 26.78 30.47 26.06 24.78 27.23 22.81 27.02 30.16 30.67 29.51 29.81 28.87 28.49 28.54 31.22 29.90 28.94 26.02 23.57 21.73 21.22 18.22 18.73 20.05 20.80 17.39 11.11 17.33 15.88
37.46 40.68 42.51 42.13 39.21 37.18 32.78 31.12 26.18 25.53 23.44 23.79 18.66 17.91 20.71 21.68 22.22 24.53 26.12 28.92 32.37 31.26 30.65 28.31 29.56 25.78 21.61 21.92 20.76 28.33 31.63 30.79 27.48 27.95 28.26 28.30 29.25 28.22 28.32 30.83 30.57 28.51 25.10 19.65 19.09 18.75 18.75 19.87 20.41 17.74 17.53 17.35 15.30 14.28
40.08 40.36 41.71 40.48 36.37 31.16 26.53 27.30 28.73 21.23 23.17 21.90 22.10 22.64 23.49 23.99 26.19 28.99 26.40 28.00 33.17 34.11 32.16 29.74 25.98 25.72 26.32 27.82 30.05 31.91 28.37 23.94 25.27 25.36 26.15 25.86 27.61 25.44 26.72 29.92 28.62 26.68 24.42 23.01 22.85 20.77 20.92 22.68 21.85 20.94 19.90 20.31 18.43 16.99
41.82 41.10 40.69 40.85 38.65 30.04 27.18 25.97 31.32 26.29 23.29 25.44 23.92 22.33 23.43 23.52 23.96 27.91 28.25 28.96 31.94 31.24 29.03 25.66 23.44 24.47 24.91 27.15 28.30 31.43 29.80 29.62 27.86 26.12 26.90 22.81 28.36 26.77 30.24 29.97 29.23 27.08 24.01 24.33 23.46 22.50 22.84 21.71 21.79 21.56 20.99 19.86 18.76 16.45
37.98 37.80 39.70 36.38 32.50 32.05 29.65 31.08 28.91 30.83 27.36 25.70 26.17 25.32 24.20 24.36 22.94 27.08 28.66 31.10 30.20 28.44 26.80 23.65 22.79 26.22 32.33 32.67 31.86 30.99 30.99 30.42 28.69 28.72 28.36 28.08 30.20 29.19 29.01 28.89 29.07 27.16 21.93 19.33 20.52 19.55 19.74 21.07 20.44 21.14 18.37 14.60 14.94 16.48
34.74 39.48 32.21 35.28 29.36 29.73 29.82 31.66 31.58 30.04 31.08 28.26 25.25 26.09 20.08 15.73 16.21 18.66 29.26 29.45 26.36 26.99 27.98 27.90 31.17 31.40 30.16 28.85 28.13 30.75 30.73 30.21 29.79 29.40 29.42 29.57 28.76 28.11 28.79 28.43 27.57 26.23 25.22 19.37 21.11 20.39 19.37 21.53 21.45 19.94 17.51 14.83 16.92 17.15
38.55 36.94 31.78 32.39 27.68 26.24 25.60 29.89 29.81 30.06 26.19 23.22 25.68 24.90 19.35 18.49 23.26 28.11 20.17 23.46 27.39 29.22 27.94 25.33 26.16 25.29 26.06 25.01 25.99 27.47 29.58 29.46 28.66 28.77 28.63 29.63 30.39 30.00 29.33 28.47 28.43 24.77 24.12 21.35 21.19 21.43 21.29 20.49 20.47 20.24 20.19 18.81 18.17 16.28
39.01 31.68 29.21 28.26 27.54 18.24 25.21 23.33 28.02 27.87 26.27 23.61 23.43 18.10 19.69 19.20 24.68 20.52 18.12 21.16 23.48 28.94 25.07 20.72 22.01 22.39 22.24 23.88 24.79 26.51 28.25 31.02 30.11 29.35 29.91 29.56 29.58 30.42 30.28 28.41 28.64 29.28 27.58 25.31 24.33 22.70 21.64 20.43 21.40 23.39 22.59 21.81 20.78 20.81
26.37 21.89 26.84 16.01 21.81 22.76 17.13 14.67 15.74 21.49 13.75 16.04 17.86 13.74 19.37 21.72 15.18 14.84 17.99 19.68 20.74 22.21 18.80 18.60 20.76 22.05 21.08 19.55 21.40 23.11 28.33 29.21 28.05 28.47 29.11 29.71 30.19 30.21 30.10 29.92 29.00 30.25 29.85 25.65 24.70 22.19 23.43 23.33 23.46 24.54 24.51 24.06 23.73 23.87
22.06 16.64 20.59 16.69 14.40 19.08 18.10 11.39 9.69 16.31 16.96 13.75 13.82 18.12 16.23 12.54 14.19 14.64 19.36 20.87 18.85 21.50 20.22 23.52 22.91 22.07 20.94 22.86 23.20 23.68 26.36 28.81 28.36 27.97 29.77 28.51 29.83 30.42 30.19 29.68 28.58 27.95 30.40 30.35 28.58 26.60 25.64 26.79 26.74 25.91 25.59 25.10 24.48 22.23
17.51 13.40 22.96 27.05 26.04 25.23 17.72 16.39 22.07 17.80 13.03 11.13 13.48 10.51 12.80 11.59 11.93 16.17 23.42 23.60 24.77 23.85 23.11 23.84 23.49 25.22 25.43 25.87 26.93 27.79 27.60 28.53 28.17 28.74 31.27 31.04 31.32 31.86 31.70 30.58 27.65 28.34 30.36 31.35 30.54 29.36 27.44 26.74 26.38 25.93 25.42 25.33 23.60 21.49
21.38 21.10 14.80 16.63 17.97 23.28 18.06 10.96 10.00 9.06 13.86 20.91 19.49 14.23 13.04 12.50 14.55 22.62 25.08 23.35 19.31 21.53 22.19 21.74 21.96 23.91 25.30 26.31 27.14 25.38 26.52 27.95 28.12 28.27 28.68 29.38 29.33 29.00 29.86 31.94 32.34 30.24 30.94 31.64 31.43 30.16 28.99 27.80 27.03 26.33 25.66 24.97 24.32 23.16
19.19 22.45 20.16 12.46 11.29 17.23 17.18 17.55 18.19 19.37 22.66 22.49 16.26 14.73 15.97 21.48 19.71 19.88 17.55 18.90 15.82 17.83 23.76 23.25 22.29 16.61 16.90 16.96 17.29 18.17 21.51 24.15 23.71 22.11 19.76 22.92 17.79 23.33 23.74 28.43 30.47 30.47 30.07 29.47 29.50 29.41 28.63 28.19 27.54 26.60 26.08 25.23 24.15 23.03
14.46 20.98 13.34 5.71 4.83 8.21 14.44 21.74 20.18 19.38 22.67 24.01 22.94 21.92 22.37 22.91 15.20 16.32 13.91 13.38 11.13 8.14 8.66 7.45 6.01 2.50 7.60 6.98 11.35 13.18 15.12 12.05 17.49 22.83 22.93 23.48 25.12 23.16 28.05 28.93 28.78 29.69 30.07 30.22 28.87 27.79 28.36 27.95 27.40 26.54 24.62 22.87 21.19 19.16
17.81 12.53 9.42 8.69 10.00 18.37 17.03 19.71 14.75 16.29 16.83 20.60 22.51 18.66 18.39 12.31 15.70 12.62 8.42 2.52 0.67 -1.48 4.36 7.87 6.77 0.58 0.14 7.98 7.04 8.90 9.97 10.86 10.65 16.17 18.07 20.16 25.43 29.58 28.79 28.90 28.94 29.15 30.25 29.83 28.66 27.69 26.75 26.21 25.48 24.64 23.97 22.38 21.51 20.55
3.67 6.77 4.75 11.35 14.23 18.33 7.87 6.01 5.35 3.87 7.66 8.06 17.82 12.26 5.32 4.39 5.28 1.77 3.36 -1.73 -1.17 -0.56 -0.38 -3.28 -0.56 8.02 9.61 9.43 10.28 12.11 13.52 14.16 14.59 16.63 18.45 20.55 25.60 29.78 30.68 29.07 29.07 29.08 28.52 28.84 28.48 27.50 26.79 26.07 25.36 24.65 22.66 21.12 20.56 19.29
0.33 -4.44 -0.69 -1.45 2.80 6.61 8.67 10.07 8.22 2.03 -3.92 -3.80 2.68 3.95 5.00 7.77 6.01 6.44 5.99 1.37 2.42 1.96 3.43 7.97 8.01 8.35 7.80 7.68 9.20 12.69 15.17 17.62 18.42 20.68 22.37 26.31 27.69 29.18 30.18 29.30 28.88 28.13 27.18 26.42 26.54 26.56 25.68 25.27 23.46 21.62 18.92 17.10 14.77 13.47
MSLP
1012.90 1013.33 1013.74 1014.11 1014.46 1014.78 1015.06 1015.43 1015.68 1015.92 1016.13 1016.33 1016.54 1016.74 1016.95 1017.22 1017.61 1018.41 1018.77 1018.91 1019.45 1019.43 1018.89 1018.84 1018.59 1018.68 1018.49 1018.49 1018.70 1018.51 1018.53 1017.93 1018.34 1018.83 1018.98 1018.13 1017.22 1015.68 1014.73 1013.61 1013.16 1013.55 1013.43 1012.53 1011.55 1010.69 1009.03 1006.73 1006.89 1006.65 1005.80 1004.62 1004.99 1004.55
1012.89 1013.29 1013.67 1013.98 1014.31 1014.58 1014.86 1015.15 1015.38 1015.57 1015.73 1015.93 1016.12 1016.30 1016.48 1016.73 1017.04 1017.58 1018.15 1018.35 1018.53 1019.07 1018.37 1017.86 1017.55 1017.44 1017.40 1017.20 1017.92 1018.21 1018.04 1017.77 1017.72 1018.10 1018.28 1017.88 1017.18 1016.02 1014.76 1013.48 1012.77 1012.27 1011.41 1010.51 1010.07 1008.24 1006.70 1006.16 1005.38 1004.84 1004.69 1004.54 1004.17 1003.90
1012.87 1013.19 1013.45 1013.76 1014.04 1014.25 1014.49 1014.76 1014.99 1015.17 1015.32 1015.45 1015.60 1015.74 1015.90 1016.12 1016.52 1017.07 1017.51 1017.99 1018.45 1018.54 1017.89 1017.48 1016.47 1015.80 1016.10 1016.19 1016.48 1017.29 1016.95 1016.88 1016.77 1016.82 1017.35 1017.25 1016.83 1015.87 1014.66 1012.51 1011.53 1010.29 1009.46 1009.41 1009.24 1006.87 1006.35 1005.60 1005.16 1004.78 1004.45 1003.92 1003.62 1003.32
1012.72 1012.98 1013.26 1013.52 1013.75 1013.97 1014.21 1014.43 1014.65 1014.85 1015.00 1015.09 1015.19 1015.31 1015.49 1015.77 1016.19 1016.70 1017.44 1017.75 1018.14 1018.19 1018.05 1016.01 1015.22 1015.11 1014.41 1014.62 1015.14 1015.17 1015.03 1015.41 1015.61 1016.07 1015.96 1015.63 1014.94 1013.63 1012.71 1011.62 1010.47 1009.03 1008.48 1007.57 1007.01 1006.05 1005.82 1005.05 1004.79 1004.46 1004.01 1003.61 1003.47 1003.05
1012.38 1012.67 1012.93 1013.23 1013.48 1013.68 1013.91 1014.15 1014.38 1014.57 1014.69 1014.75 1014.87 1015.07 1015.34 1015.68 1016.04 1016.74 1017.25 1017.35 1017.49 1018.28 1017.83 1016.38 1014.98 1013.35 1012.89 1013.48 1013.74 1014.09 1014.54 1014.78 1014.89 1014.62 1014.18 1013.69 1012.98 1012.59 1011.45 1010.86 1008.24 1007.79 1006.87 1006.95 1005.87 1005.56 1005.44 1004.36 1004.05 1003.69 1003.62 1003.10 1002.87 1003.03
1012.02 1012.32 1012.62 1012.88 1013.11 1013.33 1013.58 1013.84 1014.08 1014.25 1014.32 1014.41 1014.64 1014.96 1015.26 1015.60 1016.19 1017.01 1017.43 1016.78 1016.91 1017.53 1017.79 1016.58 1014.19 1012.64 1012.04 1012.04 1012.27 1012.53 1012.82 1013.67 1013.62 1012.96 1012.50 1011.87 1011.25 1011.27 1009.75 1008.26 1005.68 1005.76 1005.50 1005.18 1004.81 1004.38 1004.27 1003.66 1003.53 1003.30 1003.13 1002.91 1002.71 1002.71
1011.69 1011.99 1012.26 1012.48 1012.71 1012.98 1013.29 1013.57 1013.81 1014.00 1014.04 1014.30 1014.66 1014.96 1015.25 1015.63 1016.26 1016.73 1016.68 1016.62 1016.37 1017.05 1017.16 1016.35 1014.80 1012.63 1011.78 1011.51 1011.54 1011.52 1011.83 1012.31 1012.53 1012.15 1011.30 1010.65 1010.22 1010.27 1009.05 1007.15 1002.31 1004.76 1004.51 1004.24 1003.70 1004.20 1003.76 1003.47 1002.99 1002.60 1002.55 1002.45 1002.38 1002.61
1011.27 1011.61 1011.87 1012.07 1012.28 1012.63 1012.96 1013.27 1013.55 1013.73 1014.02 1014.38 1014.76 1015.08 1015.43 1015.82 1016.26 1016.35 1015.87 1016.10 1016.49 1017.10 1017.30 1016.67 1014.99 1013.98 1012.10 1011.91 1011.83 1011.59 1011.73 1011.84 1011.41 1010.68 1010.32 1009.83 1009.45 1008.81 1007.38 1004.03 1002.65 1003.16 1003.39 1003.27 1003.03 1003.02 1002.71 1002.41 1002.61 1002.30 1002.13 1002.25 1002.35 1002.71
1010.83 1011.22 1011.52 1011.78 1012.04 1012.37 1012.70 1012.95 1013.27 1013.64 1014.08 1014.56 1014.98 1015.43 1015.98 1016.38 1016.67 1015.92 1015.37 1015.43 1016.13 1016.86 1016.41 1015.99 1015.36 1014.67 1012.66 1012.34 1012.15 1011.83 1011.77 1011.55 1010.38 1009.91 1009.29 1008.87 1007.88 1006.44 1003.59 1002.95 1002.40 1001.86 1002.43 1002.02 1001.97 1001.98 1002.10 1002.16 1001.98 1001.68 1001.90 1002.20 1002.50 1003.14
1010.37 1010.81 1011.20 1011.53 1011.88 1012.21 1012.39 1012.78 1013.28 1013.79 1014.25 1014.83 1015.46 1016.11 1016.73 1016.05 1015.38 1015.47 1015.52 1015.82 1015.91 1015.73 1015.56 1014.67 1014.48 1014.04 1013.05 1012.58 1012.30 1012.40 1011.47 1010.92 1009.85 1008.33 1007.95 1007.31 1005.47 1003.34 1002.62 1002.03 1001.82 1001.56 1001.22 1001.18 1001.50 1001.34 1001.54 1001.60 1001.49 1001.46 1001.77 1002.20 1002.78 1003.47
1009.87 1010.41 1010.87 1011.34 1011.78 1012.09 1012.45 1012.90 1013.43 1014.01 1014.71 1015.36 1016.01 1016.06 1015.58 1015.21 1015.49 1015.84 1015.85 1015.53 1015.05 1014.60 1013.90 1013.13 1013.09 1012.80 1012.22 1012.37 1011.96 1011.46 1010.66 1009.84 1008.73 1007.25 1007.08 1005.88 1004.24 1002.89 1002.35 1001.90 1001.39 1000.95 1000.53 1000.30 1000.49 1000.56 1000.47 1000.55 1000.63 1001.29 1002.04 1002.42 1003.12 1003.87
1009.45 1010.05 1010.62 1011.20 1011.70 1012.07 1012.57 1013.03 1013.56 1014.11 1014.71 1014.72 1014.95 1015.31 1015.50 1015.58 1015.64 1015.78 1015.19 1014.40 1013.95 1013.17 1012.52 1012.23 1011.65 1011.39 1011.07 1010.86 1010.69 1010.11 1009.59 1008.94 1007.28 1006.42 1005.97 1004.44 1003.23 1002.72 1002.28 1001.75 1001.10 1000.46 1000.06 999.81 999.35 999.33 999.66 999.94 1000.13 1000.95 1001.82 1002.73 1003.57 1004.31
1009.16 1009.84 1010.51 1011.14 1011.62 1012.07 1012.64 1013.15 1013.67 1013.95 1014.35 1014.82 1015.26 1015.75 1015.87 1016.00 1015.73 1014.87 1014.08 1013.34 1012.79 1012.00 1011.11 1010.70 1010.45 1009.89 1009.32 1009.29 1009.24 1008.90 1008.25 1006.94 1006.07 1005.34 1004.41 1003.51 1003.05 1002.80 1002.51 1001.94 1001.04 1000.42 999.71 999.05 997.95 998.40 999.17 999.71 1000.32 1001.11 1002.18 1003.21 1004.10 1005.15
1009.13 1009.86 1010.53 1011.09 1011.56 1012.12 1012.68 1013.30 1013.82 1014.14 1014.61 1015.34 1015.95 1016.24 1016.32 1015.58 1014.57 1013.50 1012.66 1012.35 1011.72 1011.06 1010.24 1009.73 1009.11 1008.55 1007.96 1008.13 1007.72 1007.40 1006.57 1006.06 1005.20 1004.53 1003.99 1003.42 1003.11 1003.12 1002.74 1002.17 1001.40 1000.70 1000.16 999.63 998.65 998.71 999.46 1000.31 1001.15 1001.90 1002.58 1003.67 1004.70 1006.00
1009.38 1010.10 1010.69 1011.16 1011.63 1012.24 1012.81 1013.50 1013.95 1014.44 1015.01 1015.70 1015.99 1015.89 1015.35 1014.07 1013.19 1012.56 1012.01 1011.64 1010.68 1009.96 1009.34 1008.28 1007.70 1007.41 1007.07 1006.98 1006.59 1006.29 1005.79 1005.01 1004.69 1004.31 1004.28 1003.30 1003.35 1003.34 1002.94 1002.38 1001.87 1001.38 1001.02 1000.59 1000.35 1000.05 1000.47 1001.23 1002.07 1002.97 1003.76 1004.34 1005.26 1006.53
1009.74 1010.51 1011.01 1011.73 1012.19 1012.59 1013.20 1013.89 1014.44 1014.87 1015.30 1015.64 1015.51 1015.13 1014.31 1014.22 1013.09 1012.68 1011.98 1011.03 1009.89 1009.38 1008.75 1008.21 1007.50 1006.76 1006.09 1005.92 1005.67 1005.37 1005.04 1004.60 1004.54 1004.43 1003.92 1003.58 1003.47 1003.53 1003.31 1002.82 1002.45 1002.22 1001.97 1001.63 1001.53 1001.63 1001.93 1002.44 1003.06 1004.17 1004.85 1005.49 1006.21 1006.93
1010.35 1010.45 1011.06 1011.78 1012.40 1013.08 1013.71 1014.45 1015.01 1015.31 1015.46 1015.34 1014.70 1014.10 1014.11 1013.77 1013.01 1011.98 1011.14 1010.25 1009.53 1009.39 1008.90 1008.44 1007.77 1006.61 1005.94 1005.54 1005.43 1005.10 1004.83 1004.53 1004.47 1004.05 1003.93 1003.90 1003.79 1003.66 1003.46 1003.11 1002.87 1002.84 1002.88 1002.99 1003.05 1003.08 1003.51 1003.86 1004.25 1004.91 1005.88 1006.73 1007.18 1007.87
1010.47 1011.01 1011.50 1012.18 1012.84 1013.59 1014.18 1014.53 1015.19 1015.26 1015.15 1014.36 1014.45 1013.54 1013.30 1012.78 1011.86 1010.91 1010.30 1009.62 1009.60 1009.12 1008.83 1008.36 1008.18 1007.39 1006.66 1005.95 1005.44 1005.26 1004.92 1004.53 1004.35 1004.33 1004.34 1004.14 1003.92 1003.75 1003.68 1003.38 1003.18 1003.26 1003.52 1003.86 1003.94 1004.09 1004.26 1004.51 1004.91 1005.65 1006.32 1007.02 1007.78 1008.46
1010.87 1011.50 1012.11 1012.57 1013.08 1013.78 1014.57 1014.77 1014.90 1014.82 1013.93 1013.70 1013.08 1012.65 1012.35 1011.51 1010.45 1009.83 1009.46 1009.11 1008.87 1008.64 1008.66 1008.48 1008.22 1007.40 1006.71 1006.15 1005.78 1005.40 1005.18 1005.06 1004.84 1004.63 1004.40 1004.18 1004.07 1003.94 1003.71 1003.46 1003.42 1003.66 1003.97 1004.24 1004.42 1004.67 1004.79 1004.95 1005.31 1005.76 1006.37 1007.07 1007.79 1008.59
1011.73 1012.28 1012.71 1013.03 1013.14 1013.93 1014.41 1014.45 1014.33 1014.09 1013.30 1012.45 1012.30 1012.07 1011.57 1010.78 1009.81 1009.52 1009.24 1008.90 1008.64 1008.59 1008.48 1008.46 1007.91 1007.21 1006.89 1006.43 1006.16 1005.72 1005.41 1005.28 1005.12 1004.80 1004.42 1004.17 1003.91 1003.82 1003.61 1003.53 1003.61 1003.87 1004.27 1004.52 1004.79 1004.96 1005.25 1005.63 1005.91 1006.20 1006.62 1007.10 1007.78 1008.54
1012.84 1013.23 1013.29 1013.51 1013.82 1014.11 1014.25 1013.57 1013.54 1012.85 1012.32 1012.14 1011.48 1011.49 1011.13 1010.40 1009.92 1009.51 1009.12 1008.81 1008.64 1008.48 1008.37 1008.06 1007.74 1007.59 1007.13 1006.59 1006.15 1005.87 1005.56 1005.45 1005.27 1005.06 1004.65 1004.12 1003.87 1003.75 1003.55 1003.54 1003.67 1004.00 1004.43 1004.77 1004.95 1005.25 1005.31 1005.52 1005.88 1006.30 1006.81 1007.41 1007.81 1008.33
1013.13 1013.37 1013.83 1013.90 1014.35 1014.24 1013.89 1012.87 1012.63 1012.09 1011.97 1011.41 1011.43 1011.07 1011.08 1010.81 1010.04 1009.43 1008.72 1008.75 1008.66 1008.66 1008.63 1008.56 1008.26 1007.86 1007.36 1006.91 1006.50 1005.96 1005.61 1005.37 1005.07 1004.73 1004.43 1004.16 1003.76 1003.55 1003.37 1003.35 1003.57 1003.78 1004.14 1004.57 1004.69 1004.99 1005.24 1005.46 1005.84 1006.34 1006.94 1007.64 1007.92 1008.52
1013.19 1013.55 1013.96 1014.23 1014.72 1014.37 1013.17 1012.55 1012.27 1011.75 1011.60 1011.36 1011.15 1011.08 1010.94 1010.48 1009.44 1008.82 1008.88 1008.77 1008.76 1009.03 1009.13 1009.01 1008.71 1008.38 1008.01 1007.25 1006.62 1006.05 1005.62 1005.27 1004.85 1004.47 1004.14 1003.81 1003.48 1003.21 1003.07 1003.01 1003.10 1003.43 1003.70 1004.03 1004.31 1004.66 1005.10 1005.37 1005.75 1006.19 1006.74 1007.40 1007.94 1008.63
1013.48 1013.98 1014.19 1013.95 1014.04 1013.80 1013.18 1012.65 1012.09 1011.77 1011.42 1011.40 1011.34 1011.21 1010.63 1010.05 1009.39 1009.27 1009.21 1008.96 1008.87 1008.95 1008.97 1009.01 1008.78 1008.22 1007.60 1007.21 1006.88 1006.38 1005.82 1005.34 1004.78 1004.24 1003.78 1003.55 1003.14 1002.74 1002.67 1002.65 1002.71 1002.84 1002.94 1003.29 1003.88 1004.25 1004.65 1005.09 1005.41 1005.79 1006.32 1006.95 1007.59 1008.18
1014.10 1014.17 1014.26 1014.09 1013.75 1013.78 1013.49 1013.02 1012.49 1012.15 1012.22 1011.55 1011.63 1011.18 1010.46 1009.90 1009.75 1009.60 1009.19 1008.87 1008.91 1009.22 1009.11 1008.94 1008.78 1008.63 1008.42 1007.50 1006.91 1006.33 1005.76 1005.43 1004.92 1004.19 1003.48 1003.23 1002.93 1002.55 1002.29 1002.21 1002.27 1002.29 1002.47 1002.98 1003.49 1003.83 1004.21 1004.59 1004.94 1005.34 1005.80 1006.33 1006.93 1007.57
1014.43 1014.10 1014.06 1013.71 1013.62 1013.63 1013.38 1013.50 1012.89 1012.41 1012.10 1012.00 1011.47 1010.72 1010.57 1010.45 1010.37 1009.38 1008.39 1008.50 1008.90 1009.05 1008.76 1008.72 1008.58 1008.27 1008.00 1007.70 1006.95 1006.20 1005.63 1005.33 1004.90 1004.11 1003.18 1002.97 1002.70 1002.36 1001.99 1001.82 1001.81 1001.85 1001.91 1002.09 1002.52 1003.02 1003.51 1003.89 1004.25 1004.70 1005.31 1005.81 1006.34 1007.05
1014.58 1013.88 1013.40 1013.03 1012.92 1012.91 1013.07 1012.74 1012.55 1012.52 1012.29 1011.86 1011.17 1010.99 1010.92 1010.62 1009.92 1008.78 1008.57 1008.52 1008.73 1008.56 1008.41 1008.11 1008.00 1007.88 1007.47 1006.94 1006.48 1006.01 1005.53 1005.09 1004.71 1003.98 1003.08 1002.52 1002.15 1001.93 1001.72 1001.39 1001.15 1000.97 1001.10 1001.39 1001.68 1001.97 1002.48 1002.99 1003.53 1003.98 1004.58 1005.29 1005.83 1006.46
1013.86 1013.63 1013.59 1013.54 1013.35 1013.11 1013.18 1012.99 1012.71 1012.21 1011.31 1010.79 1010.92 1010.96 1010.34 1009.62 1009.17 1008.79 1008.73 1008.71 1008.72 1008.36 1008.21 1007.99 1007.87 1007.73 1007.44 1006.96 1006.36 1005.82 1005.22 1004.61 1003.92 1003.21 1002.51 1001.89 1001.52 1001.33 1001.15 1000.91 1000.58 1000.37 1000.42 1000.58 1000.89 1001.25 1001.66 1002.10 1002.73 1003.26 1003.92 1004.74 1005.48 1006.14
1013.69 1013.24 1013.46 1014.07 1013.62 1013.29 1012.82 1012.48 1012.08 1011.36 1010.71 1010.55 1010.46 1010.02 1009.55 1009.21 1009.10 1009.18 1009.04 1009.17 1008.90 1009.01 1008.94 1008.72 1008.45 1008.31 1007.71 1007.21 1006.59 1006.14 1005.64 1005.07 1004.36 1003.39 1002.67 1002.05 1001.64 1001.18 1000.72 1000.52 1000.25 1000.07 1000.03 1000.18 1000.42 1000.78 1001.23 1001.73 1002.19 1002.78 1003.61 1004.42 1005.07 1005.74
1014.18 1013.70 1014.10 1014.19 1014.41 1013.44 1012.59 1011.79 1011.55 1011.10 1010.70 1010.39 1010.10 1009.73 1009.47 1009.17 1009.24 1009.53 1009.67 1009.74 1009.92 1010.31 1010.36 1010.24 1010.05 1009.43 1008.97 1008.41 1007.56 1006.23 1005.52 1005.19 1004.79 1004.21 1003.33 1002.40 1001.55 1000.93 1000.49 1000.27 1000.04 999.92 999.89 999.90 1000.10 1000.60 1001.14 1001.63 1002.24 1003.03 1003.73 1004.39 1005.12 1005.89
1014.52 1014.62 1014.76 1014.37 1013.86 1012.78 1012.18 1011.72 1011.34 1011.08 1010.63 1010.09 1009.60 1009.79 1009.56 1009.56 1009.90 1010.22 1010.50 1010.70 1010.90 1011.06 1010.86 1010.62 1010.12 1009.74 1009.16 1008.66 1008.29 1007.53 1005.97 1004.71 1004.45 1003.99 1003.43 1002.70 1001.61 1000.57 1000.10 999.84 999.69 999.65 999.64 999.75 999.95 1000.31 1000.87 1001.48 1002.14 1002.77 1003.65 1004.41 1005.12 1005.82
1015.64 1015.69 1015.63 1015.03 1013.74 1012.40 1012.17 1012.02 1011.44 1011.22 1010.60 1010.37 1009.77 1009.65 1009.77 1010.08 1010.58 1011.14 1011.09 1011.21 1011.55 1011.50 1011.29 1011.03 1010.54 1009.60 1008.95 1008.57 1008.06 1007.41 1006.70 1005.66 1004.63 1003.70 1002.72 1001.79 1000.82 999.88 999.32 999.23 999.19 999.23 999.34 999.52 999.80 1000.14 1000.69 1001.21 1001.93 1002.76 1003.57 1004.38 1005.14 1005.84
1016.39 1016.12 1015.62 1015.13 1014.23 1013.61 1013.20 1013.10 1012.54 1012.07 1011.73 1010.99 1010.31 1009.75 1009.75 1010.15 1010.65 1011.20 1011.17 1011.17 1011.48 1011.43 1011.35 1010.89 1010.15 1009.29 1008.73 1008.13 1007.42 1006.68 1005.86 1004.98 1004.08 1003.06 1001.97 1000.70 999.92 999.27 998.85 998.70 998.72 998.83 999.09 999.38 999.74 1000.13 1000.66 1001.33 1002.19 1002.97 1003.84 1004.75 1005.62 1006.43
Wind_Speed
11 10 9 8 7 7 8 8 8 9 9 10 11 13 14 14 15 7 3 6 5 3 7 5 6 7 3 2 4 2 5 3 2 2 4 5 5 6 6 14 11 6 4 9 10 13 15 11 2 9 8 2 4 7
9 8 8 7 8 8 9 10 10 10 10 11 12 13 14 15 16 14 3 2 5 3 5 4 7 12 15 18 7 5 7 4 4 2 2 1 3 3 1 9 3 9 11 8 9 6 6 5 5 7 8 14 8 9
7 8 8 8 9 10 11 10 9 8 9 10 11 12 14 14 14 9 2 3 2 3 4 5 10 17 14 14 13 6 3 6 7 6 4 4 8 4 7 10 10 10 12 9 7 19 18 17 8 6 11 14 12 9
10 9 9 9 9 8 9 9 8 8 8 9 10 10 10 10 13 10 3 3 2 0 2 7 4 5 8 12 15 18 20 7 4 4 7 7 6 8 7 10 13 9 2 4 7 10 8 9 6 8 9 10 8 9
11 10 10 10 9 9 10 9 9 8 8 10 9 7 7 7 8 5 2 4 4 3 4 6 8 20 18 14 17 15 16 14 6 6 6 8 4 6 6 8 16 7 11 6 11 10 7 9 7 7 9 9 11 9
12 11 10 10 10 11 10 9 9 8 9 10 8 7 7 9 12 4 2 2 5 4 3 4 5 7 8 7 12 16 15 9 5 3 4 5 4 6 5 7 9 10 11 13 15 10 12 14 8 10 14 14 12 11
12 12 11 10 11 12 11 10 9 8 8 8 8 8 9 13 4 4 6 4 7 5 3 4 5 5 4 4 2 2 8 6 5 4 5 7 6 7 2 12 28 9 8 10 12 2 11 11 14 10 8 12 6 4
13 12 11 10 11 12 10 11 9 9 9 10 10 8 7 9 4 3 4 9 6 2 2 4 6 5 2 3 2 0 2 4 5 4 1 3 2 5 8 23 21 16 14 15 18 16 20 18 15 16 10 5 4 4
14 12 10 10 11 10 9 9 10 12 12 13 10 11 5 3 2 4 5 4 2 4 3 3 3 6 3 2 2 3 3 2 3 4 4 5 4 8 14 17 19 18 11 15 14 10 11 9 13 9 6 6 6 6
15 13 11 12 11 8 9 13 13 14 14 16 6 5 3 5 6 1 3 2 4 4 4 6 3 6 3 1 4 2 2 4 4 6 3 4 11 20 16 17 14 13 16 15 14 14 7 6 8 7 7 6 6 9
17 15 14 13 11 10 12 13 16 17 9 3 2 3 4 3 2 2 2 3 2 4 4 4 7 7 2 2 4 4 3 3 4 4 5 4 5 4 5 6 9 12 12 13 14 17 13 10 7 7 7 7 9 11
18 17 16 15 12 14 15 16 20 5 4 5 5 2 1 1 2 3 4 3 5 4 2 3 5 6 5 5 5 4 4 2 7 3 4 4 3 4 8 11 14 10 8 15 17 14 12 11 8 10 10 9 9 9
18 17 17 15 12 16 17 20 13 6 6 3 3 3 2 2 2 5 4 3 4 3 4 4 6 4 4 4 4 3 5 5 1 4 4 1 3 6 8 10 13 13 12 15 14 14 11 8 9 9 10 8 9 8
18 17 16 14 13 18 19 19 10 6 4 2 3 4 4 4 5 6 5 5 4 5 9 8 6 4 4 4 3 5 5 1 4 2 2 4 3 6 9 10 12 12 12 13 4 8 11 11 9 9 11 10 11 9
18 16 14 12 17 19 20 17 7 3 3 1 2 5 6 6 4 4 4 2 5 5 7 5 4 3 3 3 3 3 3 3 3 1 3 4 4 5 10 11 11 9 8 6 6 6 9 9 10 7 5 8 10 10
19 14 5 22 21 19 17 10 4 2 2 2 5 4 5 2 6 3 3 5 3 3 3 3 3 4 4 3 4 4 3 3 1 3 4 4 5 5 7 9 9 6 6 5 4 4 5 6 9 8 7 6 7 10
13 1 19 17 16 17 13 4 2 1 3 3 5 4 7 6 8 5 3 4 1 2 2 3 4 3 3 1 3 2 3 2 3 5 2 4 5 5 6 8 6 5 4 4 3 4 4 6 9 9 9 2 6 6
4 14 20 20 14 7 2 2 2 2 5 5 3 4 3 4 4 5 4 2 2 2 1 2 3 3 4 3 3 3 3 4 3 3 3 5 5 5 5 7 4 4 2 3 3 3 4 6 7 4 9 7 7 6
13 13 21 17 6 4 3 2 3 4 7 3 4 3 4 5 5 5 3 2 3 2 2 2 4 3 4 2 4 7 4 3 3 3 3 5 5 4 5 6 2 2 1 1 2 2 2 3 4 6 7 6 6 5
18 18 14 6 4 3 1 3 2 3 4 4 2 3 3 4 3 3 3 2 3 2 3 4 4 4 2 3 3 7 4 3 3 6 6 3 3 3 4 3 2 1 2 3 2 3 3 4 2 4 5 6 7 7
9 3 6 4 3 2 3 2 5 4 3 3 3 1 4 3 3 2 2 1 1 2 3 3 3 3 4 5 4 4 4 3 3 3 7 7 5 4 3 2 2 2 2 2 4 2 2 3 3 4 5 3 3 4
2 7 2 3 3 3 4 4 4 3 3 3 3 1 3 3 4 3 2 1 2 2 1 2 5 7 9 9 8 4 4 5 5 5 6 6 5 3 3 3 3 3 3 3 3 3 2 3 4 4 5 4 4 5
6 3 2 2 2 4 7 1 4 3 3 4 2 2 4 3 4 0 1 2 1 1 1 2 3 5 6 7 7 6 5 6 6 5 5 5 5 4 4 3 3 3 3 3 2 4 4 4 5 6 6 6 5 5
4 2 4 4 6 6 2 3 3 3 2 3 3 4 4 4 1 2 3 2 2 1 1 3 2 4 4 3 4 7 9 7 7 6 6 5 5 5 4 4 3 4 4 4 4 4 5 5 7 7 7 7 7 7
1 5 2 5 3 3 2 4 4 2 4 3 2 5 5 2 1 3 5 3 2 1 2 3 2 2 3 4 4 5 7 7 9 9 8 4 6 5 4 4 4 4 4 5 5 5 6 6 7 8 8 8 9 9
5 5 8 6 4 4 4 2 4 5 3 3 6 4 3 2 1 7 4 4 3 3 3 3 3 4 3 4 7 8 10 10 10 9 10 5 6 7 6 6 5 5 5 6 7 9 9 9 9 11 9 9 11 9
5 6 4 4 2 1 3 3 2 2 4 5 4 3 1 4 7 5 1 1 2 3 3 4 4 5 6 6 6 7 7 9 10 10 11 7 5 5 6 7 7 5 6 8 8 10 11 10 10 10 9 7 8 8
6 2 3 3 2 2 4 2 3 5 5 3 1 3 5 6 4 2 2 3 3 4 4 3 3 5 6 7 8 8 9 10 11 9 6 6 5 4 6 7 7 8 7 8 9 8 9 10 10 10 10 9 8 7
4 3 3 4 3 4 5 5 5 4 2 2 3 4 5 3 2 1 2 1 2 2 6 5 6 6 5 4 5 4 5 7 11 14 11 9 5 5 3 4 4 4 4 5 8 9 10 9 10 9 10 8 7 7
5 2 1 1 3 6 6 4 3 4 3 4 3 5 8 7 0 1 2 3 4 2 2 2 3 3 5 5 9 13 6 3 5 7 10 9 9 4 3 5 4 3 4 6 7 7 10 9 9 8 7 6 6 5
2 2 2 3 7 9 7 4 3 4 5 9 10 9 11 4 1 1 2 1 1 3 4 6 6 2 3 7 6 8 13 4 6 13 12 10 11 10 6 5 4 3 4 6 8 8 9 8 9 9 9 9 9 8
2 2 2 10 11 10 5 3 3 2 4 3 10 2 3 3 3 3 2 3 4 4 3 2 4 10 8 6 6 7 12 12 12 12 17 11 11 10 7 6 5 5 6 7 7 9 12 11 9 9 9 10 9 9
4 3 4 4 5 6 4 4 4 6 4 4 5 2 2 4 4 3 2 1 3 2 3 6 7 8 8 9 9 10 9 10 15 18 20 16 15 12 6 4 5 7 8 7 8 8 11 13 10 10 10 10 9 10
Wind_Direction
162 159 163 172 185 195 197 207 215 222 225 224 223 222 223 220 215 167 221 180 173 223 253 230 208 219 250 168 211 243 8 284 28 157 155 233 220 231 224 242 249 215 220 248 248 249 263 217 230 188 235 266 242 268
170 176 188 199 208 213 215 217 222 228 232 232 232 231 229 227 223 196 199 179 200 209 264 231 221 228 233 236 241 207 219 185 218 101 235 277 280 308 341 273 252 250 200 233 204 227 236 249 234 259 253 261 246 240
200 207 203 208 217 220 221 219 217 228 238 239 238 235 234 229 210 195 149 133 162 240 271 234 239 238 233 226 204 214 222 199 219 175 205 226 249 167 252 251 255 245 241 234 233 252 250 258 262 262 260 253 252 241
209 207 208 208 214 211 200 204 214 223 242 245 242 236 231 216 208 194 167 159 145 241 253 275 258 243 220 215 210 214 236 231 207 181 218 222 215 196 237 254 259 235 302 222 254 276 260 258 240 262 269 254 267 270
212 213 205 204 210 213 209 210 215 230 256 250 236 216 201 201 206 128 147 198 170 178 235 282 287 268 249 229 222 213 217 224 222 213 209 231 213 238 237 267 255 199 231 213 249 242 224 250 254 272 287 263 265 260
211 213 207 212 213 208 206 210 221 240 267 225 195 185 180 168 127 90 342 246 184 162 267 285 270 259 258 216 223 218 214 214 215 223 216 217 245 215 225 245 226 195 220 227 250 245 232 272 266 281 267 257 258 267
208 209 214 219 214 208 204 207 220 251 223 184 175 177 173 152 119 145 188 230 158 152 256 288 276 276 283 244 249 175 177 201 208 231 223 242 230 201 237 264 261 247 236 243 245 223 275 258 275 267 246 259 263 238
206 211 224 217 211 195 201 206 229 221 175 158 155 148 152 155 32 328 237 179 134 131 196 264 271 336 335 284 323 108 152 202 220 224 173 208 220 203 234 251 267 258 256 255 256 249 256 266 273 267 258 207 192 136
204 211 206 203 189 193 213 215 187 165 153 151 141 107 69 59 190 238 283 200 121 152 221 227 243 260 350 280 259 328 165 247 238 232 227 161 206 225 224 242 256 260 243 255 257 245 246 237 251 267 192 170 140 134
202 202 200 191 184 202 193 164 158 151 141 118 68 67 332 220 241 30 12 78 199 203 227 247 153 254 90 12 301 311 236 235 250 235 125 224 246 254 265 258 264 270 267 263 252 250 229 236 232 217 206 171 157 144
199 191 190 181 178 177 156 156 151 137 88 60 97 193 235 287 80 49 252 223 208 250 218 235 204 251 236 199 230 200 225 245 253 242 183 233 252 254 339 328 300 272 262 253 248 258 243 218 200 166 163 141 134 140
194 183 181 176 175 167 164 156 146 108 165 184 167 115 49 63 206 199 226 231 207 248 225 236 227 203 223 205 206 203 220 214 250 145 223 245 268 321 327 317 308 301 300 281 245 234 228 211 177 149 146 142 142 137
185 176 175 173 174 167 159 157 151 127 116 53 52 52 252 249 254 213 226 217 235 222 230 209 258 243 215 179 195 214 229 239 348 231 234 267 270 320 316 313 309 310 311 317 255 224 193 165 135 141 127 128 124 122
171 167 167 173 181 163 163 160 137 118 80 110 117 292 203 260 241 212 209 228 234 238 257 258 253 241 191 196 210 219 234 289 276 274 313 276 240 302 313 314 314 320 330 334 359 125 123 124 112 122 130 141 134 137
156 154 163 164 157 157 163 158 106 62 102 160 189 233 226 236 262 242 246 266 246 244 264 267 233 233 203 230 218 257 245 234 246 329 251 281 316 320 321 324 323 323 329 337 340 103 114 121 125 103 104 125 119 124
141 139 143 148 171 167 157 133 42 60 33 197 234 252 264 320 280 322 252 260 265 273 276 269 274 250 208 209 213 219 259 268 231 254 262 299 309 315 313 324 328 340 342 350 27 59 83 109 126 125 91 84 116 137
143 120 147 150 147 130 119 90 69 263 213 247 246 222 244 266 259 254 205 242 222 280 294 294 292 332 304 293 266 207 232 266 255 279 297 285 292 311 311 317 328 349 357 8 4 68 83 92 113 114 116 81 102 96
120 140 146 136 121 110 46 84 133 216 252 240 231 241 206 221 254 262 243 215 183 237 252 264 312 284 286 267 286 292 282 263 241 268 287 298 298 305 313 310 322 343 16 48 66 56 95 121 122 104 117 124 110 112
134 133 135 137 130 106 126 257 144 245 240 237 249 224 226 242 233 251 254 228 202 183 222 257 258 246 259 258 308 318 289 260 276 290 279 286 281 287 305 303 329 337 101 89 110 94 98 82 123 139 137 143 136 140
126 133 130 93 65 77 92 271 177 246 262 238 257 268 227 233 276 280 298 269 182 195 196 222 234 239 230 285 270 294 281 291 305 310 311 300 301 294 287 262 267 188 133 107 84 108 109 90 81 130 141 142 145 158
84 131 56 58 15 134 230 242 211 233 255 260 251 215 260 336 306 293 272 194 197 214 251 256 291 281 290 285 293 290 298 310 302 285 303 309 320 280 271 240 177 168 152 168 167 175 157 168 151 140 138 125 106 112
118 112 71 24 48 303 263 228 254 271 243 254 311 236 285 302 280 261 193 200 227 261 297 317 339 332 329 325 315 285 279 290 287 289 293 290 295 288 266 224 185 202 198 199 191 184 175 142 133 129 129 131 121 129
111 92 46 138 207 247 257 21 240 222 248 267 306 267 280 267 236 287 304 223 142 100 264 268 286 280 286 297 307 303 285 280 291 284 279 284 285 273 262 221 198 188 206 224 168 158 168 146 145 138 134 135 132 126
59 156 206 227 197 251 312 269 246 257 281 256 231 268 263 231 319 33 240 227 189 219 317 291 293 317 318 301 341 329 331 326 307 287 277 276 287 281 240 234 209 213 197 155 165 159 154 156 151 150 147 148 153 153
175 248 233 271 281 258 284 293 287 319 252 249 278 283 267 46 231 225 222 221 201 206 267 292 299 265 278 280 293 298 316 325 317 312 292 265 278 282 262 230 226 219 168 152 171 165 168 159 162 162 162 160 160 160
240 237 184 203 250 183 225 250 237 231 230 274 244 262 11 64 325 257 230 157 172 209 254 263 267 295 275 254 304 316 320 319 312 296 297 273 263 268 273 254 236 240 196 193 175 179 178 178 174 167 168 167 160 153
241 269 225 224 254 249 319 288 268 196 243 233 248 308 70 242 238 257 265 212 185 251 242 236 218 250 270 289 291 290 295 298 283 284 288 271 255 254 259 260 238 232 175 189 185 182 181 178 175 171 162 164 165 162
224 234 190 263 290 228 217 254 239 237 241 260 146 229 223 210 243 240 211 238 237 291 288 285 271 279 289 289 302 313 305 302 292 285 273 260 244 250 256 261 253 196 193 193 189 179 177 173 172 166 162 168 164 162
242 236 125 259 252 235 219 216 236 247 227 183 226 247 250 240 225 256 315 328 286 21 343 338 339 340 309 309 295 312 314 327 322 313 300 293 302 294 243 263 254 218 193 180 171 165 168 166 163 158 160 161 156 150
272 150 171 283 193 249 243 216 230 245 242 220 228 266 274 276 156 35 356 15 31 11 328 291 295 355 322 324 321 319 314 256 278 301 316 310 302 269 248 253 245 226 200 177 160 151 149 144 138 143 144 137 137 137
304 37 279 234 252 276 261 280 279 251 249 268 271 257 263 250 129 36 43 16 29 12 19 0 340 307 303 325 321 316 310 314 316 309 299 292 291 287 257 243 228 201 187 172 160 154 153 153 156 149 153 154 156 154
354 238 213 291 294 295 3 356 285 267 286 271 271 251 338 68 244 290 288 74 41 27 304 296 324 320 314 293 279 267 263 283 294 294 296 284 287 286 263 229 207 188 179 171 163 158 161 156 153 158 154 149 147 146
326 330 278 339 323 333 305 358 296 299 309 277 270 235 210 168 193 227 303 134 154 200 309 323 300 289 289 291 290 298 290 296 298 302 308 302 284 280 270 220 197 182 168 161 154 151 149 145 141 135 129 127 122 117